Time,TemperatureF,DewpointF,PressureIn,WindDirection,WindDirectionDegrees,WindSpeedMPH,WindSpeedGustMPH,Humidity,HourlyPrecipIn,Conditions,Clouds,dailyrainin,SoftwareType,DateUTC
2013-06-09 00:02:00,50.0,38.0,-100.00,SSE,150,8.0,12.0,62,-99.99,,,-99.99,,2013-06-09 06:02:00,
2013-06-09 00:12:00,50.0,38.0,-100.00,SSE,150,7.0,12.0,63,-99.99,,,-99.99,,2013-06-09 06:12:00,
2013-06-09 00:22:00,50.0,38.0,-100.00,SSE,155,9.0,12.0,64,-99.99,,,-99.99,,2013-06-09 06:22:00,
2013-06-09 00:32:00,50.0,38.0,-100.00,SE,140,11.0,12.0,64,-99.99,,,-99.99,,2013-06-09 06:32:00,
2013-06-09 00:42:00,49.0,38.0,-100.00,SE,145,10.0,12.0,65,-99.99,,,-99.99,,2013-06-09 06:42:00,
2013-06-09 00:52:00,49.0,38.0,-100.00,SE,135,11.0,12.0,66,-99.99,,,-99.99,,2013-06-09 06:52:00,
2013-06-09 01:02:00,48.0,38.0,-100.00,ESE,120,9.0,12.0,67,-99.99,,,-99.99,,2013-06-09 07:02:00,
2013-06-09 01:12:00,47.0,37.0,-100.00,East,100,5.0,9.0,70,-99.99,,,-99.99,,2013-06-09 07:12:00,
2013-06-09 01:22:00,46.0,38.0,-100.00,SE,125,9.0,10.0,72,-99.99,,,-99.99,,2013-06-09 07:22:00,
2013-06-09 01:32:00,48.0,39.0,-100.00,SE,125,8.0,10.0,70,-99.99,,,-99.99,,2013-06-09 07:32:00,
2013-06-09 01:42:00,47.0,38.0,-100.00,SE,140,9.0,10.0,70,-99.99,,,-99.99,,2013-06-09 07:42:00,
2013-06-09 01:52:00,47.0,38.0,-100.00,SE,140,9.0,11.0,70,-99.99,,,-99.99,,2013-06-09 07:52:00,
2013-06-09 02:02:00,47.0,38.0,-100.00,SSE,160,7.0,11.0,70,-99.99,,,-99.99,,2013-06-09 08:02:00,
2013-06-09 02:12:00,45.0,37.0,-100.00,SSE,160,6.0,8.0,74,-99.99,,,-99.99,,2013-06-09 08:12:00,
2013-06-09 02:22:00,44.0,37.0,-100.00,SSE,160,4.0,7.0,76,-99.99,,,-99.99,,2013-06-09 08:22:00,
2013-06-09 02:32:00,45.0,38.0,-100.00,SSE,160,6.0,6.0,77,-99.99,,,-99.99,,2013-06-09 08:32:00,
2013-06-09 02:42:00,45.0,38.0,-100.00,SSE,165,6.0,6.0,77,-99.99,,,-99.99,,2013-06-09 08:42:00,
2013-06-09 02:53:00,45.0,38.0,-100.00,SSE,165,4.0,6.0,78,-99.99,,,-99.99,,2013-06-09 08:53:00,
2013-06-09 03:02:00,44.0,38.0,-100.00,South,185,6.0,6.0,79,-99.99,,,-99.99,,2013-06-09 09:02:00,
2013-06-09 03:12:00,45.0,39.0,-100.00,South,175,6.0,7.0,79,-99.99,,,-99.99,,2013-06-09 09:12:00,
2013-06-09 03:22:00,45.0,39.0,-100.00,South,180,7.0,9.0,79,-99.99,,,-99.99,,2013-06-09 09:22:00,
2013-06-09 03:33:00,45.0,39.0,-100.00,SSW,195,6.0,7.0,78,-99.99,,,-99.99,,2013-06-09 09:33:00,
2013-06-09 03:43:00,47.0,40.0,-100.00,SSW,200,7.0,9.0,74,-99.99,,,-99.99,,2013-06-09 09:43:00,
2013-06-09 03:52:00,48.0,40.0,-100.00,SW,215,6.0,8.0,73,-99.99,,,-99.99,,2013-06-09 09:52:00,
2013-06-09 04:03:00,48.0,40.0,-100.00,SW,220,5.0,6.0,72,-99.99,,,-99.99,,2013-06-09 10:03:00,
2013-06-09 04:12:00,48.0,40.0,-100.00,SW,220,5.0,7.0,71,-99.99,,,-99.99,,2013-06-09 10:12:00,
2013-06-09 04:23:00,49.0,40.0,-100.00,SW,230,3.0,6.0,69,-99.99,,,-99.99,,2013-06-09 10:23:00,
2013-06-09 04:32:00,51.0,38.0,-100.00,WNW,285,4.0,5.0,60,-99.99,,,-99.99,,2013-06-09 10:32:00,
2013-06-09 04:43:00,51.0,36.0,-100.00,NW,310,3.0,4.0,57,-99.99,,,-99.99,,2013-06-09 10:43:00,
2013-06-09 04:52:00,49.0,35.0,-100.00,NW,315,3.0,4.0,59,-99.99,,,-99.99,,2013-06-09 10:52:00,
2013-06-09 05:02:00,49.0,35.0,-100.00,WNW,295,4.0,4.0,57,-99.99,,,-99.99,,2013-06-09 11:02:00,
2013-06-09 05:12:00,49.0,35.0,-100.00,NW,315,3.0,4.0,57,-99.99,,,-99.99,,2013-06-09 11:12:00,
2013-06-09 05:22:00,50.0,35.0,-100.00,NW,305,6.0,6.0,55,-99.99,,,-99.99,,2013-06-09 11:22:00,
2013-06-09 05:32:00,49.0,34.0,-100.00,NW,305,6.0,6.0,55,-99.99,,,-99.99,,2013-06-09 11:32:00,
2013-06-09 05:42:00,49.0,34.0,-100.00,WNW,300,5.0,6.0,55,-99.99,,,-99.99,,2013-06-09 11:42:00,
2013-06-09 05:52:00,49.0,33.0,-100.00,WNW,290,5.0,6.0,53,-99.99,,,-99.99,,2013-06-09 11:52:00,
2013-06-09 06:02:00,49.0,31.0,-100.00,WNW,290,5.0,6.0,51,-99.99,,,-99.99,,2013-06-09 12:02:00,
2013-06-09 06:22:00,49.0,31.0,-100.00,NW,305,7.0,9.0,51,-99.99,,,-99.99,,2013-06-09 12:22:00,
2013-06-09 06:32:00,50.0,33.0,-100.00,WNW,300,7.0,12.0,51,-99.99,,,-99.99,,2013-06-09 12:32:00,
2013-06-09 06:42:00,51.0,33.0,-100.00,NW,305,7.0,12.0,50,-99.99,,,-99.99,,2013-06-09 12:42:00,
2013-06-09 06:52:00,52.0,33.0,-100.00,NNW,340,6.0,9.0,49,-99.99,,,-99.99,,2013-06-09 12:52:00,
2013-06-09 07:02:00,52.0,33.0,-100.00,NNW,340,6.0,7.0,48,-99.99,,,-99.99,,2013-06-09 13:02:00,
2013-06-09 07:12:00,52.0,33.0,-100.00,NNW,330,6.0,7.0,49,-99.99,,,-99.99,,2013-06-09 13:12:00,
2013-06-09 07:22:00,53.0,34.0,-100.00,NNW,335,4.0,7.0,48,-99.99,,,-99.99,,2013-06-09 13:22:00,
2013-06-09 07:32:00,54.0,35.0,-100.00,NNW,330,5.0,7.0,47,-99.99,,,-99.99,,2013-06-09 13:32:00,
2013-06-09 07:42:00,55.0,35.0,-100.00,NNW,330,5.0,7.0,46,-99.99,,,-99.99,,2013-06-09 13:42:00,
2013-06-09 07:52:00,56.0,35.0,-100.00,NW,325,5.0,7.0,45,-99.99,,,-99.99,,2013-06-09 13:52:00,
2013-06-09 08:02:00,57.0,36.0,-100.00,WNW,300,7.0,14.0,44,-99.99,,,-99.99,,2013-06-09 14:02:00,
2013-06-09 08:22:00,59.0,36.0,-100.00,WNW,300,9.0,11.0,42,-99.99,,,-99.99,,2013-06-09 14:22:00,
2013-06-09 08:32:00,61.0,37.0,-100.00,NW,305,11.0,16.0,41,-99.99,,,-99.99,,2013-06-09 14:32:00,
2013-06-09 08:42:00,62.0,36.0,-100.00,WNW,285,14.0,19.0,38,-99.99,,,-99.99,,2013-06-09 14:42:00,
2013-06-09 08:52:00,62.0,36.0,-100.00,WNW,285,12.0,17.0,37,-99.99,,,-99.99,,2013-06-09 14:52:00,
2013-06-09 09:02:00,63.0,36.0,-100.00,West,280,12.0,19.0,36,-99.99,,,-99.99,,2013-06-09 15:02:00,
2013-06-09 09:12:00,63.0,35.0,-100.00,WNW,285,13.0,20.0,35,-99.99,,,-99.99,,2013-06-09 15:12:00,
2013-06-09 09:22:00,64.0,36.0,-100.00,WNW,290,10.0,16.0,35,-99.99,,,-99.99,,2013-06-09 15:22:00,
2013-06-09 09:33:00,65.0,36.0,-100.00,West,260,11.0,16.0,34,-99.99,,,-99.99,,2013-06-09 15:33:00,
2013-06-09 09:43:00,66.0,36.0,-100.00,WNW,290,11.0,17.0,33,-99.99,,,-99.99,,2013-06-09 15:43:00,
2013-06-09 09:53:00,67.0,36.0,-100.00,NW,310,12.0,18.0,32,-99.99,,,-99.99,,2013-06-09 15:53:00,
2013-06-09 10:03:00,66.0,36.0,-100.00,WNW,290,14.0,19.0,32,-99.99,,,-99.99,,2013-06-09 16:03:00,
2013-06-09 10:13:00,66.0,35.0,-100.00,West,275,17.0,22.0,32,-99.99,,,-99.99,,2013-06-09 16:13:00,
2013-06-09 10:23:00,67.0,36.0,-100.00,WNW,295,12.0,21.0,31,-99.99,,,-99.99,,2013-06-09 16:23:00,
2013-06-09 10:33:00,68.0,36.0,-100.00,NW,315,16.0,20.0,30,-99.99,,,-99.99,,2013-06-09 16:33:00,
2013-06-09 10:42:00,69.0,37.0,-100.00,WNW,300,15.0,24.0,30,-99.99,,,-99.99,,2013-06-09 16:42:00,
2013-06-09 10:53:00,70.0,37.0,-100.00,WNW,300,14.0,24.0,30,-99.99,,,-99.99,,2013-06-09 16:53:00,
2013-06-09 11:02:00,70.0,37.0,-100.00,WNW,295,14.0,22.0,30,-99.99,,,-99.99,,2013-06-09 17:02:00,
2013-06-09 11:12:00,70.0,37.0,-100.00,WNW,295,16.0,22.0,29,-99.99,,,-99.99,,2013-06-09 17:12:00,
2013-06-09 11:22:00,69.0,36.0,-100.00,WNW,295,9.0,22.0,29,-99.99,,,-99.99,,2013-06-09 17:22:00,
2013-06-09 11:32:00,71.0,37.0,-100.00,WNW,295,9.0,22.0,29,-99.99,,,-99.99,,2013-06-09 17:32:00,
2013-06-09 11:42:00,69.0,36.0,-100.00,West,260,13.0,20.0,29,-99.99,,,-99.99,,2013-06-09 17:42:00,
2013-06-09 11:52:00,70.0,37.0,-100.00,WNW,300,11.0,20.0,29,-99.99,,,-99.99,,2013-06-09 17:52:00,
2013-06-09 12:02:00,71.0,38.0,-100.00,West,280,12.0,24.0,29,-99.99,,,-99.99,,2013-06-09 18:02:00,
2013-06-09 12:12:00,71.0,37.0,-100.00,West,270,12.0,24.0,28,-99.99,,,-99.99,,2013-06-09 18:12:00,
2013-06-09 12:21:00,71.0,37.0,-100.00,WNW,300,10.0,19.0,28,-99.99,,,-99.99,,2013-06-09 18:21:00,
2013-06-09 12:32:00,72.0,37.0,-100.00,WNW,290,17.0,24.0,27,-99.99,,,-99.99,,2013-06-09 18:32:00,
2013-06-09 12:42:00,72.0,36.0,-100.00,WNW,290,11.0,24.0,27,-99.99,,,-99.99,,2013-06-09 18:42:00,
2013-06-09 12:52:00,73.0,36.0,-100.00,NW,305,15.0,24.0,26,-99.99,,,-99.99,,2013-06-09 18:52:00,
2013-06-09 13:02:00,73.0,37.0,-100.00,NW,320,9.0,17.0,26,-99.99,,,-99.99,,2013-06-09 19:02:00,
2013-06-09 13:12:00,73.0,36.0,-100.00,NW,305,11.0,22.0,25,-99.99,,,-99.99,,2013-06-09 19:12:00,
2013-06-09 13:22:00,74.0,36.0,-100.00,NW,315,12.0,21.0,25,-99.99,,,-99.99,,2013-06-09 19:22:00,
2013-06-09 13:32:00,74.0,36.0,-100.00,WNW,300,12.0,17.0,24,-99.99,,,-99.99,,2013-06-09 19:32:00,
2013-06-09 13:42:00,74.0,36.0,-100.00,NNW,335,18.0,23.0,24,-99.99,,,-99.99,,2013-06-09 19:42:00,
2013-06-09 13:52:00,75.0,36.0,-100.00,NW,305,11.0,22.0,24,-99.99,,,-99.99,,2013-06-09 19:52:00,
2013-06-09 14:02:00,75.0,36.0,-100.00,West,275,11.0,19.0,24,-99.99,,,-99.99,,2013-06-09 20:02:00,
2013-06-09 14:12:00,76.0,36.0,-100.00,NW,315,12.0,20.0,23,-99.99,,,-99.99,,2013-06-09 20:12:00,
2013-06-09 14:22:00,76.0,36.0,-100.00,NW,305,10.0,22.0,23,-99.99,,,-99.99,,2013-06-09 20:22:00,
2013-06-09 14:32:00,77.0,36.0,-100.00,NW,305,12.0,23.0,22,-99.99,,,-99.99,,2013-06-09 20:32:00,
2013-06-09 14:42:00,77.0,36.0,-100.00,WNW,295,11.0,21.0,22,-99.99,,,-99.99,,2013-06-09 20:42:00,
2013-06-09 14:52:00,77.0,36.0,-100.00,WNW,300,11.0,20.0,22,-99.99,,,-99.99,,2013-06-09 20:52:00,
2013-06-09 15:02:00,77.0,36.0,-100.00,WNW,290,10.0,24.0,22,-99.99,,,-99.99,,2013-06-09 21:02:00,
2013-06-09 15:12:00,77.0,36.0,-100.00,NW,310,17.0,21.0,22,-99.99,,,-99.99,,2013-06-09 21:12:00,
2013-06-09 15:22:00,77.0,36.0,-100.00,NW,305,13.0,23.0,22,-99.99,,,-99.99,,2013-06-09 21:22:00,
2013-06-09 15:33:00,77.0,36.0,-100.00,NW,320,14.0,22.0,22,-99.99,,,-99.99,,2013-06-09 21:33:00,
2013-06-09 15:43:00,77.0,36.0,-100.00,NNW,340,14.0,20.0,22,-99.99,,,-99.99,,2013-06-09 21:43:00,
2013-06-09 15:53:00,78.0,37.0,-100.00,WSW,245,9.0,14.0,23,-99.99,,,-99.99,,2013-06-09 21:53:00,
2013-06-09 16:02:00,78.0,37.0,-100.00,WNW,295,9.0,18.0,22,-99.99,,,-99.99,,2013-06-09 22:02:00,
2013-06-09 16:13:00,77.0,36.0,-100.00,WNW,295,18.0,24.0,22,-99.99,,,-99.99,,2013-06-09 22:13:00,
2013-06-09 16:23:00,77.0,35.0,-100.00,NNW,340,10.0,26.0,21,-99.99,,,-99.99,,2013-06-09 22:23:00,
2013-06-09 16:33:00,78.0,36.0,-100.00,NNW,340,12.0,24.0,22,-99.99,,,-99.99,,2013-06-09 22:33:00,
2013-06-09 16:52:00,78.0,36.0,-100.00,NW,310,17.0,22.0,22,-99.99,,,-99.99,,2013-06-09 22:52:00,
2013-06-09 17:02:00,79.0,37.0,-100.00,NW,320,10.0,18.0,22,-99.99,,,-99.99,,2013-06-09 23:02:00,
2013-06-09 17:12:00,78.0,36.0,-100.00,NW,315,11.0,19.0,21,-99.99,,,-99.99,,2013-06-09 23:12:00,
2013-06-09 17:22:00,79.0,36.0,-100.00,NW,305,12.0,25.0,21,-99.99,,,-99.99,,2013-06-09 23:22:00,
2013-06-09 17:32:00,79.0,36.0,-100.00,NW,305,14.0,27.0,21,-99.99,,,-99.99,,2013-06-09 23:32:00,
2013-06-09 17:42:00,78.0,35.0,-100.00,WNW,295,12.0,23.0,21,-99.99,,,-99.99,,2013-06-09 23:42:00,
2013-06-09 17:52:00,77.0,35.0,-100.00,West,275,10.0,24.0,21,-99.99,,,-99.99,,2013-06-09 23:52:00,
2013-06-09 18:02:00,78.0,36.0,-100.00,WNW,290,16.0,24.0,21,-99.99,,,-99.99,,2013-06-10 00:02:00,
2013-06-09 18:12:00,77.0,35.0,-100.00,WNW,290,16.0,21.0,21,-99.99,,,-99.99,,2013-06-10 00:12:00,
2013-06-09 18:22:00,78.0,36.0,-100.00,West,265,15.0,18.0,21,-99.99,,,-99.99,,2013-06-10 00:22:00,
2013-06-09 18:32:00,77.0,35.0,-100.00,West,280,11.0,21.0,21,-99.99,,,-99.99,,2013-06-10 00:32:00,
2013-06-09 18:52:00,76.0,35.0,-100.00,West,275,11.0,14.0,22,-99.99,,,-99.99,,2013-06-10 00:52:00,
2013-06-09 19:02:00,77.0,35.0,-100.00,WNW,295,7.0,13.0,22,-99.99,,,-99.99,,2013-06-10 01:02:00,
2013-06-09 19:12:00,76.0,35.0,-100.00,West,280,11.0,21.0,22,-99.99,,,-99.99,,2013-06-10 01:12:00,
2013-06-09 19:22:00,74.0,34.0,-100.00,West,260,12.0,17.0,22,-99.99,,,-99.99,,2013-06-10 01:22:00,
2013-06-09 19:32:00,75.0,34.0,-100.00,WSW,250,13.0,19.0,22,-99.99,,,-99.99,,2013-06-10 01:32:00,
2013-06-09 19:42:00,74.0,34.0,-100.00,West,260,13.0,17.0,23,-99.99,,,-99.99,,2013-06-10 01:42:00,
2013-06-09 19:52:00,74.0,35.0,-100.00,West,260,9.0,16.0,23,-99.99,,,-99.99,,2013-06-10 01:52:00,
2013-06-09 20:02:00,74.0,35.0,-100.00,SW,235,12.0,16.0,23,-99.99,,,-99.99,,2013-06-10 02:02:00,
2013-06-09 20:12:00,73.0,34.0,-100.00,WSW,245,12.0,17.0,24,-99.99,,,-99.99,,2013-06-10 02:12:00,
2013-06-09 20:22:00,72.0,35.0,-100.00,SW,225,11.0,20.0,24,-99.99,,,-99.99,,2013-06-10 02:22:00,
2013-06-09 20:32:00,71.0,34.0,-100.00,SSW,210,7.0,14.0,25,-99.99,,,-99.99,,2013-06-10 02:32:00,
2013-06-09 20:42:00,70.0,34.0,-100.00,SW,220,7.0,13.0,26,-99.99,,,-99.99,,2013-06-10 02:42:00,
2013-06-09 20:52:00,69.0,34.0,-100.00,SW,215,9.0,14.0,27,-99.99,,,-99.99,,2013-06-10 02:52:00,
2013-06-09 21:02:00,69.0,34.0,-100.00,SW,220,12.0,17.0,27,-99.99,,,-99.99,,2013-06-10 03:02:00,
2013-06-09 21:12:00,68.0,34.0,-100.00,SW,220,12.0,19.0,27,-99.99,,,-99.99,,2013-06-10 03:12:00,
2013-06-09 21:22:00,68.0,34.0,-100.00,SW,215,12.0,18.0,28,-99.99,,,-99.99,,2013-06-10 03:22:00,
2013-06-09 21:33:00,67.0,33.0,-100.00,SW,225,12.0,17.0,28,-99.99,,,-99.99,,2013-06-10 03:33:00,
2013-06-09 21:43:00,67.0,33.0,-100.00,SW,230,12.0,17.0,28,-99.99,,,-99.99,,2013-06-10 03:43:00,
2013-06-09 21:53:00,67.0,33.0,-100.00,SW,220,11.0,14.0,28,-99.99,,,-99.99,,2013-06-10 03:53:00,
2013-06-09 22:03:00,66.0,33.0,-100.00,SW,220,12.0,17.0,29,-99.99,,,-99.99,,2013-06-10 04:03:00,
2013-06-09 22:12:00,67.0,34.0,-100.00,SW,220,13.0,19.0,28,-99.99,,,-99.99,,2013-06-10 04:12:00,
2013-06-09 22:23:00,67.0,33.0,-100.00,SW,215,12.0,17.0,28,-99.99,,,-99.99,,2013-06-10 04:23:00,
2013-06-09 22:33:00,67.0,33.0,-100.00,SSW,210,12.0,19.0,28,-99.99,,,-99.99,,2013-06-10 04:33:00,
2013-06-09 22:42:00,67.0,33.0,-100.00,SW,225,11.0,17.0,28,-99.99,,,-99.99,,2013-06-10 04:42:00,
2013-06-09 22:52:00,67.0,33.0,-100.00,SW,215,12.0,17.0,28,-99.99,,,-99.99,,2013-06-10 04:52:00,
2013-06-09 23:02:00,67.0,33.0,-100.00,SW,215,10.0,17.0,28,-99.99,,,-99.99,,2013-06-10 05:02:00,
2013-06-09 23:12:00,67.0,33.0,-100.00,SSW,200,12.0,17.0,28,-99.99,,,-99.99,,2013-06-10 05:12:00,
2013-06-09 23:22:00,67.0,33.0,-100.00,SW,220,12.0,16.0,29,-99.99,,,-99.99,,2013-06-10 05:22:00,
2013-06-09 23:32:00,66.0,33.0,-100.00,SW,215,9.0,16.0,29,-99.99,,,-99.99,,2013-06-10 05:32:00,
2013-06-09 23:42:00,66.0,33.0,-100.00,SW,225,11.0,17.0,29,-99.99,,,-99.99,,2013-06-10 05:42:00,
2013-06-09 23:52:00,66.0,33.0,-100.00,SW,220,12.0,16.0,29,-99.99,,,-99.99,,2013-06-10 05:52:00,